Location: Asheville, NC
(35.6000°N, 82.5500°W)
Time: 08:58:59
(UTC-04:00)

Iridium 28 - Pass Details

Date: 07 January 2018
Orbit: 771 x 774 km, 86.4° (Epoch: 25 April)

Event Time Altitude Azimuth Distance (km) Brightness Sun altitude
Rises 05:18:56 0° 126° (SE) 3,233 9.7 -28.1°
Reaches altitude 10° 05:23:50 10° 84° (E) 2,313 8.9 -27.1°
Maximum altitude 05:24:26 10° 77° (ENE) 2,299 8.8 -27.0°
Drops below altitude 10° 05:25:03 10° 71° (ENE) 2,314 8.7 -26.9°
Sets 05:29:57 0° 30° (NNE) 3,248 9.0 -25.9°
